Location: Conover
(35.7170°N, 81.2250°W)
Time: 10:02:39
(UTC-05:00)

Daily predictions for brighter satellites

Satellite Brightness Start Highest point End
(mag) Time Altitude Azimuth Time Altitude Azimuth Time Altitude Azimuth
Cosmos 2278 Rocket 2.3 17:31:51 10° SSW 17:37:31 89° WNW 17:43:14 10° NNE
OAO 3 Rocket 4.5 17:34:10 10° SW 17:38:26 31° SSE 17:42:46 10° E
CORIOLIS 4.5 17:34:20 10° SE 17:39:30 45° ENE 17:44:39 10° N
CZ-2C R/B 3.4 17:35:23 10° S 17:40:15 56° W 17:45:17 10° NNW
Cosmos 972 Rocket 4.0 17:36:25 10° NNW 17:41:19 83° WSW 17:46:19 10° S
Meteor 1-26 Rocket 4.4 17:42:00 10° S 17:47:36 81° W 17:53:09 10° N
Cosmos 1763 Rocket 3.4 17:45:50 10° NNW 17:51:02 77° ENE 17:56:09 10° SSE
Meteor 1-28 Rocket 3.1 17:51:28 10° NNE 17:55:10 71° ESE 17:58:51 10° S
CZ-2C R/B 3.7 17:52:17 10° NNE 17:56:46 66° ESE 18:01:18 10° S
Okean 2 Rocket 4.3 17:54:21 10° NNE 17:57:52 22° ENE 18:01:21 10° SE
Cosmos 1606 2.8 17:55:05 10° S 17:58:45 51° E 18:02:25 10° NNE
Cosmos 304 Rocket 3.8 17:55:19 10° NNW 18:00:08 88° WSW 18:04:55 10° SSE
GPS 2-05 Rocket1 3.4 17:57:16 10° SW 18:00:14 40° SSE 18:02:46 14° E
Cosmos 972 4.3 17:55:32 10° N 18:00:29 73° ENE 18:05:21 10° SSE
Cosmos 1464 Rocket 4.2 17:56:55 10° SSE 18:02:40 45° E 18:08:27 10° NNE
OAO 3 Copernicus 4.5 17:58:49 10° W 18:03:54 76° S 18:08:51 11° ESE
COSMOS 2455 4.5 18:00:10 10° WSW 18:05:26 31° NW 18:10:45 10° N
Cosmos 1484 Rocket 3.0 18:02:07 10° S 18:05:56 73° W 18:09:51 10° NNW
Cosmos 1908 Rocket 3.4 18:01:57 10° N 18:06:17 78° E 18:10:36 10° S
Landsat 4 3.6 18:03:39 10° NNE 18:07:26 71° E 18:11:13 10° S
CZ-4 R/B 1.2 18:03:47 10° SSE 18:07:39 77° ENE 18:11:30 10° N
SKYMED 2 3.9 18:04:32 10° NNE 18:08:43 46° E 18:12:53 10° S
CSL-04 Rocket 4.3 18:06:33 10° S 18:11:44 60° WSW 18:17:01 10° NNW
MTI 3.7 18:08:34 10° NNE 18:11:46 62° E 18:14:57 10° S
SL-27 R/B 2.2 18:09:04 10° N 18:12:24 66° ENE 18:15:44 10° SSE
EO 1 Del DPAF 3.5 18:09:24 10° NNE 18:13:06 47° E 18:16:47 10° S
METEOR-M 4.2 18:08:00 10° SSE 18:13:09 52° ENE 18:18:20 10° N
CZ-4 R/B 4.5 18:10:23 10° SSE 18:14:27 57° ENE 18:18:32 10° N
Cosmos 540 Rocket 3.7 18:09:40 10° N 18:14:38 46° ENE 18:19:33 10° SE
Cosmos 968 Rocket 4.3 18:11:57 10° SSE 18:16:23 30° E 18:19:33 16° NE
Cosmos 1503 Rocket 4.0 18:11:32 10° SSW 18:16:49 83° ESE 18:22:04 10° NNE
USA 234 3.4 18:11:19 12° NE 18:17:17 60° SE 18:23:42 10° SSW
Ariane Rocket 3.8 18:13:42 10° S 18:18:40 56° W 18:23:41 10° NNW
Cosmos 44 4.0 18:15:28 10° N 18:19:38 30° NE 18:22:41 16° ESE
Cosmos 2082 Rocket 2.3 18:15:01 10° N 18:20:33 50° ENE 18:26:00 10° SE
Meteor 2-6 Rocket 4.1 18:15:32 10° S 18:20:52 66° E 18:26:23 10° NNE
ERS-2 2.0 18:21:35 10° SSE 18:25:13 64° ENE 18:28:53 10° N
Okean 1-7 3.0 18:22:12 10° S 18:26:34 89° W 18:31:00 10° N
Cosmos 841 Rocket 4.0 18:22:17 10° NNW 18:27:31 65° WSW 18:32:41 10° S
Sich 1 Rocket 3.8 18:23:30 10° NNW 18:27:56 72° W 18:32:23 10° S
Meteor 1-20 Rocket 4.4 18:22:40 10° NNW 18:28:11 73° W 18:33:37 10° S
BREEZE-M DEB (TANK) 4.3 18:26:40 10° N 18:27:37 12° NNE 18:27:37 12° NNE
Cosmos 1602 4.2 18:25:48 10° N 18:29:24 37° E 18:32:59 10° SSE
ALOS 2.5 18:26:27 10° SE 18:30:51 44° ENE 18:35:17 10° N
Cosmos 836 Rocket 4.4 18:26:16 10° N 18:31:29 65° ENE 18:36:43 10° SSE
Cosmos 1782 3.5 18:28:33 10° SSW 18:32:31 55° W 18:36:28 10° N
Cosmos 405 Rocket 2.5 18:29:48 10° S 18:33:35 68° E 18:36:33 15° NNE
Cosmos 1513 Rocket 4.5 18:38:01 10° S 18:44:21 89° ESE 18:50:36 10° N
Cosmos 1633 3.7 18:44:11 10° NNW 18:47:42 44° W 18:51:11 10° SSW
IUS-13 SRM-1 3.9 18:46:48 10° SSW 18:48:12 15° SSE 18:48:22 15° SSE
BREEZE-M DEB (TANK) 3.9 18:43:06 10° WNW 18:49:05 40° SW 18:51:41 13° SSE
Cosmos 1782 Rocket 4.2 18:46:41 10° NNW 18:50:56 55° W 18:55:11 10° S
YAOGAN 1 3.8 18:49:17 10° S 18:53:24 43° W 18:57:31 10° NNW
Meteor 1-27 Rocket 3.7 18:47:34 10° S 18:53:26 81° E 18:59:24 10° N
CZ-4C R/B 3.2 18:48:10 10° NNW 18:55:04 44° NE 18:58:05 31° E
FENGYUN 3A 3.5 18:50:17 10° SSE 18:55:41 78° ENE 19:01:06 10° N
COSMO-SKYMED 1 3.6 18:52:36 10° N 18:56:46 46° WNW 19:00:54 10° SSW
SPOT 3 Rocket 3.7 18:56:34 10° S 19:01:46 77° WSW 19:07:00 10° NNW
Cosmos 783 Rocket 4.4 18:57:09 10° N 19:02:26 62° ENE 19:05:35 24° SE
USA 229 DEB 3.7 18:56:35 10° SSW 19:03:06 55° ESE 19:05:14 40° ENE
USA 229 3.7 18:56:42 10° S 19:03:13 55° ESE 19:05:17 41° ENE
Tiangong 1 3.5 19:08:34 10° WSW 19:09:26 19° WSW 19:09:26 19° WSW
Cosmos 2369 Rocket 3.1 19:08:02 10° S 19:11:26 31° SE 19:11:26 31° SE
Cosmos 1833 Rocket 3.4 19:08:41 10° NNW 19:14:09 54° WSW 19:19:36 10° S
Cosmos 1634 Rocket 4.2 19:10:17 10° SSE 19:15:07 45° ESE 19:15:07 45° ESE
Nadezhda 4 Rocket 3.8 19:10:58 10° N 19:17:07 85° E 19:23:14 10° S
OAO 3 Rocket 3.3 19:16:45 10° WSW 19:21:32 70° S 19:21:32 70° S
Timation 2 Rocket 3.9 19:23:38 10° NNW 19:30:23 75° ENE 19:31:12 67° ESE
Cosmos 1092 Rocket 3.8 19:29:02 10° N 19:35:13 82° E 19:41:25 10° S
BREEZE-M R/B 4.2 19:33:12 10° WNW 19:36:35 43° SW 19:37:04 42° SSW
Thor Agena Rocket 3.7 19:36:30 69° NW 19:36:43 70° WNW 19:41:50 10° SSW
Meteor 1-11 Rocket 4.4 19:31:23 10° NNW 19:37:02 53° W 19:42:32 10° S
Cosmos 44 Rocket 3.8 19:32:23 10° NW 19:37:11 56° WSW 19:37:32 55° SW
Cosmos 1943 Rocket 4.4 19:36:15 10° S 19:36:40 12° S 19:36:40 12° S
USA 234 4.2 19:58:40 34° N 20:00:02 38° NW 20:05:57 10° W
CZ-4C R/B 3.9 20:36:45 10° NW 20:43:23 42° WSW 20:43:23 42° WSW
